Home > Time Zones > World Clock > Weather > Russia > Perm > Past weeks

Flag for Russia Weather past 2 weeks in Perm, Russia

Now
21 °F

Clear.


Feels Like: 21 °F
Forecast: 9 / 28 °F
Wind: 1 mph from North

Location: Perm'/Bolshoe Savino

Current Time: Mar 27, 2015 at 11:02:25 PM

Latest Report: Mar 27, 2015 at 10:30 PM


Visibility: 10 mi

Pressure: 30.66 "Hg

Humidity: 63%

Dew point: 10 °F

Location of PermLocation

Historic Weather in Perm — Graph

°F

Perm temperature yesterday

Maximum temperature yesterday: 27 °F (at 4:00 PM)
Minimum temperature yesterday: 14 °F (at 11:00 PM)
Average temperature yesterday: 21 °F

Past Weeks' High & Low Weather Summary

 TemperatureHumidityPressure
High48 °F (Mar 18, 5:00 PM)100% (Mar 22, 9:30 PM)30.83 "Hg (Mar 22, 9:30 PM)
Low9 °F (Mar 27, 4:30 AM)24% (Mar 26, 6:00 PM)29.36 "Hg (Mar 22, 8:30 PM)
Average29 °F63%30.15 "Hg
* Reported Mar 12 10:00 PM — Mar 27 10:00 PM, Perm, Weather by CustomWeather, © 2015

Note: Actual official high and low records may vary slightly from our data, if they occured in-between our weather recording intervals... More about our weather records

Advertising

Perm weather history for previous 24 hours

 ConditionsComfort  
Time TempWeatherWind HumidityBarometerVisibility
10:00 PM
Fri, Mar 27
23 °FClear.3 mph58%30.63 "Hg10 mi
9:30 PM23 °FSunny.1 mph58%30.63 "Hg10 mi
9:00 PM25 °FSunny.3 mph54%30.63 "Hg10 mi
8:30 PM25 °FSunny.3 mph54%30.63 "Hg10 mi
8:00 PM27 °FSunny.3 mph50%30.60 "Hg10 mi
7:30 PM27 °FSunny.3 mph46%30.60 "Hg10 mi
7:00 PM28 °FSunny.8 mph43%30.60 "Hg10 mi
6:30 PM28 °FSunny.8 mph43%30.60 "Hg10 mi
6:00 PM28 °FSunny.10 mph40%30.57 "Hg10 mi
5:30 PM28 °FSunny.10 mph43%30.57 "Hg10 mi
5:00 PM28 °FSunny.8 mph37%30.57 "Hg10 mi
4:30 PM28 °FPartly sunny.10 mph37%30.57 "HgN/A
4:00 PM30 °FPartly sunny.8 mph37%30.57 "HgN/A
3:30 PM28 °FSunny.10 mph37%30.57 "Hg10 mi
3:00 PM28 °FSunny.8 mph40%30.57 "Hg10 mi
2:30 PM28 °FPassing clouds.8 mph43%30.57 "HgN/A
2:00 PM28 °FBroken clouds.8 mph40%30.57 "HgN/A
1:30 PM28 °FBroken clouds.6 mph47%30.57 "HgN/A
1:00 PM27 °FScattered clouds.8 mph59%30.57 "HgN/A
12:30 PM25 °FScattered clouds.6 mph69%30.57 "HgN/A
12:00 PM23 °FPassing clouds.3 mph74%30.57 "HgN/A
11:30 AM19 °FSunny.6 mph86%30.57 "Hg10 mi
11:00 AM18 °FSunny.6 mph93%30.57 "Hg10 mi
10:30 AM18 °FSunny.6 mph93%30.57 "Hg10 mi
10:00 AM14 °FPassing clouds.3 mph100%30.57 "HgN/A
9:30 AM14 °FScattered clouds.6 mph92%30.57 "HgN/A
9:00 AM10 °FSunny.6 mph85%30.57 "Hg10 mi
8:00 AM10 °FClear.6 mph85%30.54 "Hg10 mi
7:30 AM10 °FClear.6 mph85%30.54 "Hg10 mi
7:00 AM10 °FClear.3 mph79%30.54 "Hg10 mi
6:30 AM12 °FPassing clouds.3 mph73%30.51 "HgN/A
6:00 AM12 °FPassing clouds.3 mph67%30.51 "HgN/A
5:30 AM12 °FPartly cloudy.3 mph67%30.51 "HgN/A
5:00 AM12 °FClear.3 mph67%30.48 "Hg10 mi
4:30 AM9 °FPassing clouds.6 mph72%30.48 "HgN/A
4:00 AM12 °FClear.6 mph62%30.48 "Hg10 mi
3:30 AM12 °FClear.8 mph62%30.45 "Hg10 mi
3:00 AM12 °FClear.8 mph62%30.45 "Hg10 mi
2:30 AM12 °FClear.6 mph62%30.45 "Hg10 mi
1:00 AM12 °FClear.6 mph57%30.45 "Hg10 mi
12:00 AM14 °FClear.6 mph52%30.42 "Hg10 mi
11:30 PM
Thu, Mar 26
14 °FClear.8 mph52%30.42 "Hg10 mi
11:00 PM14 °FClear.8 mph52%30.42 "Hg10 mi
Weather by CustomWeather, © 2015

See weather overviewHow to use our weather pages